Cross City, FL

10:33 PM EDT on May 23, 2017 (GMT -0400)
Cross City

Weather History for KCTY - May, 2013

Change the Weather History Date:

Wednesday, May 15, 2013

  Actual Average Record
Temperature  
Mean Temperature 68 °F 74 °F  
Max Temperature 87 °F 88 °F 93 °F (1998)
Min Temperature 48 °F 61 °F 48 °F (2002)
Degree Days  
Heating Degree Days 0 0  
Month to date heating degree days 9 0  
Since 1 July heating degree days 1133 1303  
Cooling Degree Days 3 9  
Month to date cooling degree days 62 112  
Year to date cooling degree days 347 294  
Growing Degree Days 18 (Base 50)    
Moisture  
Dew Point 54 °F    
Average Humidity 64    
Maximum Humidity 93    
Minimum Humidity 32    
Precipitation  
Precipitation 0.00 in 0.06 in 4.39 in (2014)
Month to date precipitation 2.30 1.06  
Year to date precipitation 9.84 15.54  
Sea Level Pressure  
Sea Level Pressure 30.17 in    
Wind  
Wind Speed 3 mph (WSW)    
Max Wind Speed 14 mph    
Max Gust Speed 18 mph    
T = Trace of Precipitation, MM = Missing Value Source: NWS Daily Summary

Daily Weather History Graph

Daily Weather History Graph

Search for Another Location

Airport or City:

Trip Planner

Search our weather history database for the weather conditions in past years. The results will help you decide how hot, cold, wet, or windy it might be!

Date:

Astronomy

May. 15, 2013 Rise Set
Actual Time 6:39 AM EDT 8:18 PM EDT
Civil Twilight 6:13 AM EDT 8:44 PM EDT
Nautical Twilight 5:42 AM EDT 9:15 PM EDT
Astronomical Twilight 5:09 AM EDT 9:48 PM EDT
Moon 11:10 AM EDT (5/15) 12:06 AM EDT (5/15)
Length of Visible Light 14h 30m
Length of Day
13h 38m
Waxing Crescent, 26% of the Moon is Illuminated
May 15
Waxing Crescent
May 18
First Quarter
May 25
Full
May 31
Last Quarter
Jun 8
New

Hourly Weather History & Observations

Time (EDT) Temp. Heat Index Dew Point Humidity Pressure Visibility Wind Dir Wind Speed Gust Speed Precip Events Conditions
12:53 AM 53.1 °F - 46.9 °F 80% 30.22 in - Calm Calm - N/A   Unknown
1:53 AM 52.0 °F - 46.0 °F 80% 30.21 in - Calm Calm - N/A   Unknown
2:53 AM 50.0 °F - 46.0 °F 86% 30.19 in - Calm Calm - N/A   Unknown
3:53 AM 50.0 °F - 46.0 °F 86% 30.18 in - Calm Calm - N/A   Unknown
4:53 AM 50.0 °F - 45.0 °F 83% 30.19 in - Calm Calm - N/A   Unknown
5:53 AM 48.9 °F - 46.0 °F 90% 30.20 in - Calm Calm - N/A   Unknown
6:53 AM 48.9 °F - 46.0 °F 90% 30.21 in - Calm Calm - N/A   Unknown
7:53 AM 57.0 °F - 51.1 °F 81% 30.22 in - Calm Calm - N/A   Unknown
8:53 AM 69.1 °F - 57.9 °F 68% 30.23 in - Calm Calm - N/A   Unknown
9:53 AM 73.9 °F - 60.1 °F 62% 30.24 in - South 4.6 mph - N/A   Unknown
10:53 AM 79.0 °F - 57.0 °F 47% 30.24 in - Variable 3.5 mph - N/A   Unknown
11:53 AM 81.0 °F 80.5 °F 54.0 °F 39% 30.22 in - Calm Calm - N/A   Unknown
12:53 PM 82.0 °F 81.2 °F 53.1 °F 37% 30.21 in - Variable 3.5 mph - N/A   Unknown
1:53 PM 84.0 °F 82.6 °F 54.0 °F 35% 30.18 in - ESE 3.5 mph - N/A   Unknown
2:53 PM 86.0 °F 84.2 °F 54.0 °F 33% 30.15 in - Variable 4.6 mph - N/A   Unknown
3:53 PM 84.0 °F 84.0 °F 60.1 °F 44% 30.13 in - WSW 8.1 mph - N/A   Unknown
4:53 PM 82.0 °F 82.4 °F 60.1 °F 47% 30.12 in - West 10.4 mph - N/A   Unknown
5:53 PM 80.1 °F 81.1 °F 61.0 °F 52% 30.10 in - SW 8.1 mph - N/A   Unknown
6:53 PM 78.1 °F - 60.1 °F 54% 30.09 in - West 9.2 mph - N/A   Unknown
7:53 PM 75.0 °F - 59.0 °F 57% 30.09 in - West 5.8 mph - N/A   Unknown
8:53 PM 71.1 °F - 59.0 °F 66% 30.10 in - Calm Calm - N/A   Unknown
9:53 PM 64.9 °F - 59.0 °F 81% 30.11 in - Calm Calm - N/A   Unknown
10:53 PM 63.0 °F - 59.0 °F 87% 30.12 in - Calm Calm - N/A   Unknown
11:53 PM 61.0 °F - 57.9 °F 90% 30.10 in - Calm Calm - N/A   Unknown